Location: Bathurst
(33.4193°S, 149.5775°E)
Time: 06:29:16
(UTC+10:00)

Explorer 7 - All Passes

Search period start: 14 June 2021 00:00
Search period end: 24 June 2021 00:00
Orbit: 484 x 677 km, 50.3° (Epoch: 12 June)

Date Brightness Start Highest point End Pass type
(mag) Time Alt. Az. Time Alt. Az. Time Alt. Az.
14 Jun - 10:12:21 10° NW 10:16:06 75° NE 10:20:00 10° SE daylight
14 Jun - 11:54:19 10° WSW 11:56:58 17° SSW 11:59:42 10° SSE daylight
14 Jun - 15:20:01 10° S 15:21:11 11° SSE 15:22:23 10° SSE daylight
14 Jun - 16:58:34 10° SSW 17:02:40 37° SE 17:06:57 10° ENE daylight
14 Jun - 18:39:06 10° WSW 18:43:10 33° NW 18:47:23 10° NNE visible
15 Jun - 08:38:40 10° NNE 08:40:27 13° NE 08:42:15 10° E daylight
15 Jun - 10:16:44 10° WNW 10:20:28 59° SW 10:24:20 10° SE daylight
15 Jun - 11:59:52 10° SW 12:01:39 13° SSW 12:03:27 10° S daylight
15 Jun - 15:23:36 10° S 15:25:54 14° SSE 15:28:16 10° SE daylight
15 Jun - 17:02:45 10° SW 17:07:06 58° SE 17:11:40 10° ENE daylight
15 Jun - 18:44:08 10° W 18:47:22 19° NW 18:50:41 10° N visible
16 Jun - 08:41:33 10° N 08:44:37 24° NE 08:47:44 10° ESE daylight
16 Jun - 10:21:25 10° WNW 10:24:54 34° SW 10:28:30 10° SSE daylight
16 Jun - 15:27:29 10° SSW 15:30:33 19° SSE 15:33:44 10° ESE daylight
16 Jun - 17:07:04 10° SW 17:11:28 84° NW 17:16:06 10° NE daylight
16 Jun - 18:50:31 10° WNW 18:51:31 11° NW 18:52:32 10° NW visible
17 Jun - 08:45:14 10° NNW 08:48:50 45° NE 08:52:30 10° ESE daylight
17 Jun - 10:26:24 10° W 10:29:26 22° SSW 10:32:33 10° SSE daylight
17 Jun - 15:31:29 10° SSW 15:35:07 26° SSE 15:38:55 10° E daylight
17 Jun - 17:11:31 10° WSW 17:15:46 48° NW 17:20:13 10° NNE daylight
18 Jun - 08:49:21 10° NW 08:53:07 87° NE 08:56:58 10° SE daylight
18 Jun - 10:31:41 10° WSW 10:34:02 15° SSW 10:36:27 10° SSE daylight
18 Jun - 13:57:05 10° S 13:58:13 11° SSE 13:59:22 10° SE daylight
18 Jun - 15:35:35 10° SW 15:39:36 40° SE 15:43:50 10° ENE daylight
18 Jun - 17:16:15 10° WSW 17:20:00 28° NW 17:23:56 10° N daylight
19 Jun - 07:15:11 10° NNE 07:17:24 15° NE 07:19:38 10° E daylight
19 Jun - 08:53:49 10° WNW 08:57:29 50° SW 09:01:15 10° SE daylight
19 Jun - 10:37:26 10° SW 10:38:43 11° SSW 10:40:01 10° S daylight
19 Jun - 14:00:37 10° S 14:02:55 14° SSE 14:05:16 10° ESE daylight
19 Jun - 15:39:46 10° SW 15:44:00 65° SE 15:48:29 10° ENE daylight
19 Jun - 17:21:28 10° W 17:24:13 16° NW 17:27:01 10° NNW visible
20 Jun - 07:18:19 10° N 07:21:35 28° NE 07:24:51 10° ESE daylight
20 Jun - 08:58:34 10° W 09:01:56 30° SW 09:05:23 10° SSE daylight
20 Jun - 14:04:29 10° SSW 14:07:32 19° SSE 14:10:42 10° ESE daylight
20 Jun - 15:44:06 10° SW 15:48:20 74° NW 15:52:50 10° NE daylight
21 Jun - 07:22:08 10° NNW 07:25:49 53° NE 07:29:31 10° ESE daylight
21 Jun - 09:03:37 10° WSW 09:06:28 20° SSW 09:09:22 10° SSE daylight
21 Jun - 14:08:29 10° SSW 14:12:04 28° SSE 14:15:51 10° E daylight
21 Jun - 15:48:37 10° WSW 15:52:38 41° NW 15:56:52 10° NNE daylight
22 Jun - 07:26:20 10° NW 07:30:08 80° SW 07:33:57 10° SE daylight
22 Jun - 09:09:01 10° WSW 09:11:05 14° SSW 09:13:11 10° S daylight
22 Jun - 12:34:06 10° S 12:35:15 11° SSE 12:36:24 10° SE daylight
22 Jun - 14:12:35 10° SW 14:16:32 43° SE 14:20:42 10° ENE daylight
22 Jun - 15:53:27 10° WSW 15:56:52 24° NW 16:00:26 10° N daylight
23 Jun - 05:51:43 10° N 05:54:21 18° NE 05:56:57 10° E visible
23 Jun - 07:30:52 10° WNW 07:34:31 44° SW 07:38:10 10° SE daylight
23 Jun - 09:15:11 10° SSW 09:15:46 10° SSW 09:16:23 10° S daylight
23 Jun - 12:37:37 10° S 12:39:55 15° SSE 12:42:17 10° ESE daylight
23 Jun - 14:16:48 10° SW 14:20:55 73° SE 14:25:16 10° NE daylight
23 Jun - 15:58:57 10° W 16:01:03 13° NW 16:03:11 10° NNW daylight
